2023-025B (55691 NORAD) Tracking and Keplerian Element Data

This shows tracking and keplerian element data for the satellite.

Feedback or suggestion? Click here.




ElementValue
Catalog55691
Name2023-025B
Epoch Orbit118
Epoch Day63.07518743
Epoch Year2023
RAAN137.1675
Inclination97.6018
Eccentricity0.0065439
Argument of Perigee255.4617
Mean Anonmoly198.3767
Mean Motion15.17616396
Decay Rate-7.8E-07
L11 55691U 23025B 23063.07518743 -.00000078 00000+0 00000+0 0 9991
L22 55691 97.6018 137.1675 0065439 255.4617 198.3767 15.17616396 1182



Live tracking and technical data element details for 2023-025B (NORAD 55691). 2023-025B can be tracked NOW for your location showing map with azimuth and elevation plus other details from your city location.







IsCatalogInMostPopularTable: catalog: 55691, numindb: 1
Update: records affected: 1



GetName: 55691 2023-025B

Hit Count: updated at: Wed, 22 Mar 2023 17:15:05 GMT